Flag for Germany Weather past 2 weeks in Erftstadt, North Rhine-Westphalia, Germany

Now
55 °F

Rain. Fog.


Feels Like: 55 °F
Forecast: 55 / 67 °F
Wind: No wind

Location: Noervenich

Current Time: Aug 28, 2015 at 12:03:25 AM

Latest Report: Aug 27, 2015 at 11:20 PM


Visibility: 3 mi

Pressure: 29.89 "Hg

Humidity: 100%

Dew point: 55 °F

Location of ErftstadtLocation

Historic Weather in Erftstadt — Graph

°F

Erftstadt temperature yesterday

Maximum temperature yesterday: 73 °F (at 12:20 AM)
Minimum temperature yesterday: 55 °F (at 5:00 PM)
Average temperature yesterday: 63 °F

Past Weeks' High & Low Weather Summary

 TemperatureHumidityPressure
High90 °F (Aug 13, 5:20 PM)100% (Aug 13, 5:47 AM)30.24 "Hg (Aug 13, 5:47 AM)
Low48 °F (Aug 19, 6:20 AM)30% (Aug 23, 3:20 PM)29.53 "Hg (Aug 24, 2:20 PM)
Average65 °F74%29.94 "Hg
* Reported Aug 12 9:20 PM — Aug 27 9:20 PM, Erftstadt, Weather by CustomWeather, © 2015

Note: Actual official high and low records may vary slightly from our data, if they occured in-between our weather recording intervals... More about our weather records

Advertising

Erftstadt weather history for previous 24 hours

 ConditionsComfort  
Time TempWeatherWind HumidityBarometerVisibility
9:20 PM
Thu, Aug 27
55 °FRain. Fog.1 mph100%29.89 "Hg3 mi
8:20 PM55 °FRain. Fog.2 mph94%29.86 "Hg3 mi
7:20 PM55 °FRain. Broken clouds.2 mph94%29.89 "Hg4 mi
6:20 PM55 °FLight rain. Broken clouds.1 mph100%29.86 "Hg6 mi
5:20 PM55 °FLight rain. Partly sunny.6 mph94%29.89 "HgN/A
5:00 PM55 °FLight rain. Broken clouds.6 mph94%29.86 "HgN/A
4:20 PM57 °FRain. Broken clouds.5 mph94%29.86 "Hg6 mi
3:49 PM59 °FRain. Partly sunny.2 mph94%29.86 "Hg4 mi
3:20 PM59 °FRain. Partly sunny.5 mph88%29.89 "Hg5 mi
2:20 PM59 °FLight rain. Broken clouds.5 mph88%29.89 "Hg6 mi
1:54 PM59 °FRain. Fog.8 mph88%29.89 "Hg3 mi
1:20 PM63 °FRain. Fog.6 mph83%29.89 "Hg3 mi
12:20 PM64 °FLight rain. Partly sunny.3 mph78%29.89 "HgN/A
11:20 AM64 °FPartly sunny.2 mph83%29.86 "HgN/A
10:20 AM64 °FLight rain. Overcast.5 mph78%29.86 "HgN/A
9:20 AM66 °FLight rain. Overcast.3 mph73%29.86 "HgN/A
8:20 AM68 °FLight rain. Mostly cloudy.9 mph64%29.86 "HgN/A
7:20 AM68 °FLight rain. Overcast.6 mph73%29.83 "HgN/A
6:20 AM70 °FPassing clouds.8 mph69%29.80 "HgN/A
5:20 AM70 °FPassing clouds.3 mph64%29.80 "HgN/A
4:20 AM70 °FPassing clouds.5 mph60%29.80 "HgN/A
3:20 AM70 °FPartly cloudy.2 mph64%29.80 "HgN/A
2:20 AM73 °FLight rain. Partly cloudy.6 mph53%29.80 "HgN/A
1:20 AM73 °FPartly cloudy.6 mph53%29.80 "HgN/A
12:20 AM73 °FPassing clouds.7 mph53%29.80 "HgN/A
Weather by CustomWeather, © 2015

See weather overviewHow to use our weather pages